Weather History for Bluefield, WV

Change the Weather History Date:

Monday, January 21, 2013

  Actual Average Record
Temperature  
Mean Temperature 31 °F 34 °F  
Max Temperature 40 °F 42 °F 60 °F (1999)
Min Temperature 21 °F 26 °F -21 °F (1985)
Degree Days  
Heating Degree Days 34 31  
Month to date heating degree days 504 651  
Since 1 July heating degree days 2264 2416  
Cooling Degree Days 0 0  
Month to date cooling degree days 1 0  
Year to date cooling degree days 1 0  
Moisture  
Dew Point 10 °F    
Average Humidity 40    
Maximum Humidity 53    
Minimum Humidity 27    
Precipitation  
Precipitation 0.00 in 0.10 in 0.68 in (1982)
Month to date precipitation 3.56 1.98  
Year to date precipitation 3.56 1.98  
Snow  
Snow 0.00 in - - ()
Month to date snowfall 9.7  
Since 1 July snowfall 26.6  
Snow Depth 1.00 in    
Sea Level Pressure  
Sea Level Pressure 30.00 in    
Wind  
Wind Speed 12 mph (West)    
Max Wind Speed 29 mph    
Max Gust Speed 43 mph    
Visibility 10 miles    
Events      
T = Trace of Precipitation, MM = Missing Value Source: NWS Daily Summary

Daily Weather History Graph

Daily Weather History Graph

Search for Another Location

Airport:

Trip Planner

Search our weather history database for the weather conditions in past years. The results will help you decide how hot, cold, wet, or windy it might be!

Date:

Astronomy

Jan. 21, 2013 Rise Set
Actual Time 7:35 AM EST 5:37 PM EST
Civil Twilight 7:07 AM EST 6:05 PM EST
Nautical Twilight 6:35 AM EST 6:37 PM EST
Astronomical Twilight 6:04 AM EST 7:08 PM EST
Moon 1:17 PM EST (1/21) 3:01 AM EST (1/21)
Length of Visible Light 10h 58m
Length of Day
10h 02m
Waxing Gibbous, 75% of the Moon is Illuminated
Jan 21
Waxing Gibbous
Jan 26
Full
Feb 3
Last Quarter
Feb 10
New
Feb 17
First Quarter

Hourly Weather History & Observations

Time (EST) Temp. Windchill Dew Point Humidity Pressure Visibility Wind Dir Wind Speed Gust Speed Precip Events Conditions
12:52 AM 30.9 °F 25.2 °F 14.0 °F 50% 30.06 in 10.0 mi West 5.8 mph - N/A   Clear
1:52 AM 28.9 °F 23.9 °F 14.0 °F 54% 30.06 in 10.0 mi West 4.6 mph - N/A   Clear
2:52 AM 28.9 °F 22.8 °F 12.9 °F 51% 30.06 in 10.0 mi West 5.8 mph - N/A   Clear
3:52 AM 28.0 °F 21.7 °F 12.9 °F 53% 30.05 in 10.0 mi WSW 5.8 mph - N/A   Clear
4:52 AM 28.0 °F 21.7 °F 12.0 °F 51% 30.04 in 10.0 mi WSW 5.8 mph - N/A   Clear
5:52 AM 28.0 °F 22.8 °F 10.9 °F 49% 30.03 in 10.0 mi WSW 4.6 mph - N/A   Clear
6:52 AM 28.9 °F 21.9 °F 12.9 °F 51% 30.02 in 10.0 mi SW 6.9 mph - N/A   Clear
7:52 AM 28.9 °F 21.9 °F 14.0 °F 54% 30.02 in 10.0 mi WSW 6.9 mph - N/A   Clear
8:52 AM 30.9 °F 23.5 °F 15.1 °F 52% 30.04 in 10.0 mi WSW 8.1 mph - N/A   Clear
9:52 AM 34.0 °F 26.6 °F 16.0 °F 48% 30.04 in 10.0 mi West 9.2 mph - N/A   Scattered Clouds
10:52 AM 37.0 °F 28.9 °F 10.0 °F 33% 30.04 in 10.0 mi West 12.7 mph - N/A   Partly Cloudy
11:52 AM 37.9 °F 27.6 °F 8.1 °F 29% 30.00 in 10.0 mi West 20.7 mph 26.5 mph N/A   Partly Cloudy
12:52 PM 39.0 °F 29.6 °F 15.1 °F 38% 29.95 in 10.0 mi WSW 18.4 mph 26.5 mph N/A   Clear
1:52 PM 39.0 °F 30.6 °F 12.9 °F 34% 29.91 in 10.0 mi West 15.0 mph 25.3 mph N/A   Clear
2:52 PM 39.0 °F 27.8 °F 12.9 °F 34% 29.91 in 10.0 mi West 26.5 mph 35.7 mph N/A   Clear
3:52 PM 37.9 °F 27.6 °F 10.0 °F 32% 29.91 in 10.0 mi West 20.7 mph 36.8 mph N/A   Clear
4:52 PM 36.0 °F 23.9 °F 5.0 °F 27% 29.92 in 10.0 mi WNW 25.3 mph 34.5 mph N/A   Clear
5:52 PM 34.0 °F 25.0 °F 6.1 °F 31% 29.95 in 10.0 mi West 12.7 mph 25.3 mph N/A   Clear
6:52 PM 30.9 °F 20.2 °F 5.0 °F 33% 29.96 in 10.0 mi West 15.0 mph 25.3 mph N/A   Clear
7:52 PM 28.9 °F 18.6 °F 3.9 °F 35% 29.97 in 10.0 mi West 12.7 mph 23.0 mph N/A   Clear
8:52 PM 27.0 °F 17.3 °F 5.0 °F 39% 29.98 in 10.0 mi WNW 10.4 mph 23.0 mph N/A   Clear
9:52 PM 24.1 °F 13.1 °F 6.1 °F 46% 29.99 in 10.0 mi West 11.5 mph 20.7 mph N/A   Clear
11:52 PM 21.0 °F 7.6 °F 3.0 °F 46% 30.01 in 10.0 mi West 15.0 mph 28.8 mph N/A   Clear